User: anonymous   Login
Location: Columbia
(38.9520°N, 92.3340°W)
Time: 17:14:22
(UTC-05:00)
Language:

Iridium 52 - Orbit

View from above orbital plane
View from above orbital plane
View from above satellite
View from above satellite

Ground track
Ground track

The orbit data is extracted from the following two-line orbital elements,

1 25169U 98010A   15213.24983932  .00000253  00000-0  83376-4 0  9994
2 25169 086.3960 277.0667 0002253 093.8967 327.5778 14.34220648913462
Epoch (UTC): 01 August 2015 05:59:46
Eccentricity: 0.0002253
inclination: 86.3960°
perigee height: 776 km
apogee height: 779 km
right ascension of ascending node: 277.0667°
argument of perigee: 93.8967°
revolutions per day: 14.34220648
mean anomaly at epoch: 327.5778°
orbit number at epoch: 91346

The dashed part of the orbit path shows where the satellite is in the earth's shadow,  

DLR